This is the latest recevied weather packets stored in our database for station/object OE3APM-13. If no packets are shown the sender has not sent any weather packets the latest 10 day(s).
| Time | Temp. | Humidity | Pressure | Rain* | Wind** | Luminosity | Snow |
|---|---|---|---|---|---|---|---|
| 1777823738 | 23.89° C | 34% | 1013.9 hPa | 0 mm | - | 285 W/m² | - |
| 1777823440 | 23.89° C | 33% | 1014 hPa | 0 mm | - | 306 W/m² | - |
| 1777822837 | 24.44° C | 33% | 1014 hPa | 0 mm | - | 329 W/m² | - |
| 1777822538 | 24.44° C | 33% | 1013.9 hPa | 0 mm | - | 345 W/m² | - |
| 1777822237 | 24.44° C | 33% | 1014 hPa | 0 mm | - | 339 W/m² | - |
| 1777821936 | 24.44° C | 32% | 1014 hPa | 0 mm | - | 341 W/m² | - |
| 1777821633 | 24.44° C | 32% | 1014.1 hPa | 0 mm | - | 385 W/m² | - |
| 1777821335 | 24.44° C | 32% | 1014.1 hPa | 0 mm | - | 410 W/m² | - |
| 1777821034 | 24.44° C | 31% | 1014.2 hPa | 0 mm | - | 417 W/m² | - |
| 1777820731 | 24.44° C | 31% | 1014.2 hPa | 0 mm | - | 425 W/m² | - |
| 1777820432 | 25° C | 30% | 1014.4 hPa | 0 mm | - | 438 W/m² | - |
| 1777820132 | 25° C | 32% | 1014.4 hPa | 0 mm | - | 454 W/m² | - |
| 1777819831 | 25° C | 33% | 1014.4 hPa | 0 mm | - | 462 W/m² | - |
| 1777819529 | 25° C | 31% | 1014.5 hPa | 0 mm | - | 485 W/m² | - |
| 1777819231 | 25° C | 29% | 1014.7 hPa | 0 mm | - | 510 W/m² | - |
| 1777818924 | 25° C | 31% | 1014.5 hPa | 0 mm | - | 513 W/m² | - |
| 1777818613 | 25° C | 33% | 1014.7 hPa | 0 mm | - | 527 W/m² | - |
| 1777818310 | 25° C | 30% | 1014.8 hPa | 0 mm | - | 545 W/m² | - |
| 1777818010 | 25° C | 30% | 1014.8 hPa | 0 mm | - | 550 W/m² | - |
| 1777817709 | 25° C | 34% | 1014.9 hPa | 0 mm | - | 568 W/m² | - |
| 1777817409 | 25° C | 33% | 1015 hPa | 0 mm | - | 578 W/m² | - |
| 1777817110 | 25° C | 31% | 1015 hPa | 0 mm | - | 589 W/m² | - |
| 1777816809 | 25° C | 30% | 1015 hPa | 0 mm | - | 608 W/m² | - |
| 1777816509 | 25° C | 32% | 1015.1 hPa | 0 mm | - | 621 W/m² | - |
| 1777816210 | 25° C | 32% | 1015.1 hPa | 0 mm | - | 629 W/m² | - |
* Rain latest hour (hover to see other rain measurements)
** Current wind speed in m/s (hover to see current wind gust speed)